This is the latest recevied weather packets stored in our database for station/object K6TTR. If no packets are shown the sender has not sent any weather packets the latest 10 day(s).
| Time | Temp. | Humidity | Pressure | Rain* | Wind** | Luminosity | Snow |
|---|---|---|---|---|---|---|---|
| 1777529323 | 5.56° C | 81% | 1019.8 hPa | 0 mm | - | 0 W/m² | - |
| 1777529029 | 5.56° C | 81% | 1019.8 hPa | 0 mm | - | 0 W/m² | - |
| 1777528733 | 5.56° C | 81% | 1019.7 hPa | 0 mm | - | 0 W/m² | - |
| 1777528417 | 6.11° C | 81% | 1019.7 hPa | 0 mm | - | 0 W/m² | - |
| 1777528122 | 6.11° C | 81% | 1019.7 hPa | 0 mm | - | 0 W/m² | - |
| 1777527827 | 6.11° C | 81% | 1019.8 hPa | 0 mm | - | 0 W/m² | - |
| 1777527513 | 6.67° C | 81% | 1019.7 hPa | 0 mm | - | 0 W/m² | - |
| 1777527219 | 6.67° C | 81% | 1019.7 hPa | 0 mm | - | 0 W/m² | - |
| 1777526925 | 6.67° C | 80% | 1019.8 hPa | 0 mm | - | 0 W/m² | - |
| 1777526630 | 7.22° C | 80% | 1019.7 hPa | 0 mm | - | 0 W/m² | - |
| 1777526315 | 7.22° C | 79% | 1019.7 hPa | 0 mm | - | 0 W/m² | - |
| 1777526021 | 7.22° C | 79% | 1019.6 hPa | 0 mm | - | 0 W/m² | - |
| 1777525727 | 7.22° C | 78% | 1019.5 hPa | 0 mm | - | 0 W/m² | - |
| 1777525430 | 7.78° C | 77% | 1019.6 hPa | 0 mm | - | 0 W/m² | - |
| 1777525117 | 7.78° C | 78% | 1019.6 hPa | 0 mm | - | 0 W/m² | - |
| 1777524823 | 7.78° C | 78% | 1019.5 hPa | 0 mm | - | 0 W/m² | - |
| 1777524512 | 8.33° C | 77% | 1019.5 hPa | 0 mm | - | 0 W/m² | - |
| 1777524216 | 8.33° C | 76% | 1019.5 hPa | 0 mm | - | 0 W/m² | - |
| 1777523923 | 8.33° C | 76% | 1019.4 hPa | 0 mm | - | 0 W/m² | - |
| 1777523627 | 8.89° C | 76% | 1019.2 hPa | 0 mm | - | 0 W/m² | - |
| 1777523311 | 8.89° C | 76% | 1019.3 hPa | 0 mm | - | 0 W/m² | - |
| 1777523015 | 8.89° C | 75% | 1019.3 hPa | 0 mm | - | 0 W/m² | - |
| 1777522720 | 9.44° C | 74% | 1019.2 hPa | 0 mm | - | 0 W/m² | - |
| 1777522424 | 9.44° C | 74% | 1019.2 hPa | 0 mm | - | 0 W/m² | - |
| 1777522132 | 9.44° C | 74% | 1019.1 hPa | 0 mm | - | 0 W/m² | - |
* Rain latest hour (hover to see other rain measurements)
** Current wind speed in m/s (hover to see current wind gust speed)